Gainesville, GA

9:57 PM EDT on October 21, 2019 (GMT -0400)
Gilmer Memorial

Weather History for KGVL - August, 2019

Change the Weather History Date:

Wednesday, August 7, 2019

  Actual Average Record
Temperature  
Mean Temperature 81 °F 79 °F  
Max Temperature 91 °F 88 °F 102 °F (1930)
Min Temperature 71 °F 70 °F 57 °F (1950)
Cooling Degree Days 16 14  
Month to date cooling degree days 94 98  
Year to date cooling degree days 1167 1020  
Since 1 June cooling degree days 831 845  
Growing Degree Days 31 (Base 50)    
Moisture  
Dew Point 69 °F    
Average Humidity 72    
Maximum Humidity 93    
Minimum Humidity 50    
Precipitation  
Precipitation T in 0.17 in 2.41 in (2005)
Month to date precipitation 1.38 1.19  
Year to date precipitation 36.22 33.01  
Sea Level Pressure  
Sea Level Pressure 29.90 in    
Wind  
Wind Speed 7 mph (West)    
Max Wind Speed 15 mph    
Max Gust Speed 20 mph    
Visibility 10 miles    
Events Rain    
T = Trace of Precipitation, MM = Missing Value Source: NWS Daily Summary

Daily Weather History Graph

Daily Weather History Graph

Search for Another Location

Airport or City:

Astronomy

Aug. 07, 2019 Rise Set
Actual Time 6:50 AM EDT 8:31 PM EDT
Civil Twilight 6:23 AM EDT 8:58 PM EDT
Nautical Twilight 5:50 AM EDT 9:30 PM EDT
Astronomical Twilight 5:16 AM EDT 10:05 PM EDT
Moon 2:01 PM EDT (8/7) 12:34 AM EDT (8/7)
Length of Visible Light 14h 34m
Length of Day
13h 40m
Waxing Crescent, 49% of the Moon is Illuminated
Aug 7
Waxing Crescent
Aug 7
First Quarter
Aug 15
Full
Aug 23
Last Quarter
Aug 30
New

Hourly Weather History & Observations

Time (EDT) Temp. Heat Index Dew Point Humidity Pressure Visibility Wind Dir Wind Speed Gust Speed Precip Events Conditions
12:53 AM 73.0 °F - 68.0 °F 84% 29.93 in 10.0 mi West 4.6 mph - N/A   Clear
1:53 AM 73.9 °F - 72.0 °F 93% 29.92 in 10.0 mi Calm Calm - N/A   Clear
2:53 AM 73.0 °F - 71.1 °F 93% 29.90 in 10.0 mi WNW 3.5 mph - N/A   Clear
4:53 AM 72.0 °F - 70.0 °F 93% 29.88 in 10.0 mi WSW 3.5 mph - N/A   Clear
5:53 AM 72.0 °F - 68.0 °F 87% 29.90 in 10.0 mi WSW 4.6 mph - N/A   Clear
6:53 AM 72.0 °F - 69.1 °F 91% 29.92 in 10.0 mi West 5.8 mph - N/A   Clear
7:53 AM 73.9 °F - 69.1 °F 85% 29.93 in 10.0 mi West 5.8 mph - N/A   Clear
8:53 AM 77.0 °F - 70.0 °F 79% 29.94 in 10.0 mi WSW 4.6 mph - N/A   Clear
9:53 AM 80.1 °F 82.3 °F 66.9 °F 64% 29.95 in 10.0 mi NW 4.6 mph - N/A   Clear
10:53 AM 84.0 °F 86.5 °F 66.9 °F 56% 29.94 in 10.0 mi WSW 8.1 mph - N/A   Clear
11:53 AM 84.9 °F 88.2 °F 68.0 °F 57% 29.94 in 10.0 mi West 6.9 mph - N/A   Clear
12:53 PM 87.1 °F 90.6 °F 68.0 °F 53% 29.93 in 10.0 mi WSW 11.5 mph - N/A   Clear
1:53 PM 88.0 °F 91.4 °F 68.0 °F 51% 29.92 in 10.0 mi West 11.5 mph - N/A   Clear
2:53 PM 89.1 °F 92.9 °F 68.0 °F 50% 29.90 in 10.0 mi WSW 12.7 mph - N/A   Mostly Cloudy
3:53 PM 90.0 °F 94.5 °F 69.1 °F 50% 29.88 in 10.0 mi West 6.9 mph - N/A   Clear
4:53 PM 90.0 °F 93.6 °F 68.0 °F 48% 29.86 in 10.0 mi WNW 11.5 mph 17.3 mph N/A   Partly Cloudy
5:53 PM 89.1 °F 92.9 °F 68.0 °F 50% 29.85 in 10.0 mi WNW 9.2 mph - N/A   Clear
6:53 PM 87.1 °F 90.6 °F 68.0 °F 53% 29.84 in 10.0 mi West 5.8 mph - N/A   Clear
7:53 PM 84.9 °F 89.4 °F 70.0 °F 61% 29.86 in 10.0 mi WNW 3.5 mph - N/A   Clear
8:53 PM 81.0 °F 84.9 °F 71.1 °F 72% 29.89 in 10.0 mi West 6.9 mph 16.1 mph 0.00 in Rain Light Rain
9:53 PM 80.1 °F 83.2 °F 70.0 °F 71% 29.90 in 10.0 mi WNW 5.8 mph - 0.00 in   Partly Cloudy
10:53 PM 80.1 °F 83.6 °F 71.1 °F 74% 29.90 in 10.0 mi West 4.6 mph - N/A   Clear
11:53 PM 78.1 °F - 71.1 °F 79% 29.91 in 10.0 mi West 5.8 mph - N/A   Clear